Terug naar catalogus

STARLINK-5395

ActiefCommunicatieVLEO
NORAD 54831·PAYLOAD·🇺🇸 United States

Gelanceerd Dec 28, 2022 vanaf Cape Canaveral Space Force Station

Loading…

Volgende Passages (komende 24 uur)

TLE

VersSource: CelesTrak SupGP

Epoch: Sep 14, 2026, 21:59 UTC

1 54831C 22177M   26257.91645833 -.00035432  00000+0 -12836-2 0  2578
2 54831  42.9992 147.3877 0001272 246.5631 102.8294 15.27589837    16

Volg STARLINK-5395 in realtime met AllMySat

Download on the App Store